COSMOS 1275 DEB, 29295

Orbit data source: Space-Track

COSMOS 1275 DEB, 29295 is space debris in LEO originally from a launch on Thu, 04 Jun 1981 UTC launched from the Plesetsk Missile And Space Complex (PKMTR). Debris objects in space refer to the collection of defunct objects orbiting the Earth. Examples of debris include non-operational satellites, rocket bodies, and fragments generated from explosions, collisions, or faulty payload assembly.

Loading next visibility...
Identifier
29295, 1981-053MS
Orbit
LEO
Country
Flag of CISCIS
Related business
Manufacturer
Unknown
Mission
Spacecraft
Bus & Motor
Unknown
Mass
Unknown
Launch date (UTC)
1981-06-04 (44 years ago)
Launch vehicle
Unknown
Launch site
Plesetsk Missile And Space Complex (PKMTR)
Object type
Payload
Rocket body
Debris
Shape & HBR
Unknown shape, 0.1 m
Radar Cross Section
Small (<0.1 m²)

Expand to show TLE details & history
Last TLE update: 1 week ago

TLE from 1 week ago
0 COSMOS 1275 DEB
1 29295U 81053MS  25280.42095928  .00001560  00000-0  15480-2 0  9992
2 29295  82.9612 330.3777 0110587 237.4025 140.0334 13.75094975657319
Epoch: 2025-10-07T10:06Z
TLE epoch observation values (Epoch: 2025-10-07T10:06:10.881Z)
Latitude
18.09102°
Longitude
164.82204°
Altitude
1,046.443 km
Speed
7.299 km/s
True Right ascension
22h 10m 42s
True Declination
17° 59' 37"
Sunlit
Object was in full shadow at epoch
Visualization orbit readout
Latitude
Unknown
Longitude
Unknown
Altitude
Unknown
Speed
Unknown
Apparent Right ascension
Unknown
Apparent Declination
Unknown
Sunlit
N/A
Visualization observer readout
Local Sidereal Time
18:37:52
Azimuth
Unknown
Elevation
Unknown
Doppler factor
Unknown
Orbital elements
Apogee altitude
1,059.838 km
Perigee altitude
897.129 km
Semi-major axis
7,356.62 km
Eccentricity
0.01106
Inclination
82.9612°
RAAN
330.3777°
Arg. of periapsis
237.4025°
True anomaly
140.83883°
Mean anomaly
140.0334°
Eccentric anomaly
140.43697°
Mean motion
3.43974 °/min
Orbital period
104.66 mins
BSTAR
0.001548
Loading maneuver chart data...
Computing Atmospheric mass density...
Loading historical data...
Loading historical data...
Loading historical data...
Loading historical data...
Loading historical data...
Loading historical data...
Loading historical data...

Documentation

Showing up to 5 results
|